Regional Weather Roundup
Issued by NWS

Home | Current Version | Previous Version | Graphics & Text | Print | Product List | Glossary On
Versions: 1 2 3 4 5 6 7 8 9 10 11 12 13 14 15 16 17 18 19 20 21 22 23 24 25 26 27 28 29 30 31 32 33 34 35 36 37 38 39 40 41 42 43 44 45 46 47 48 49 50
000
ASUS43 KOAX 031302
RWRNE

WEATHER ROUNDUP FOR NEBRASKA
NATIONAL WEATHER SERVICE OMAHA NE
800 AM CDT TUE MAY 03 2016

NOTES: SATELLITE DATA IS BEING USED TO AUGMENT CLOUD COVER ABOVE
       12000 FEET.
       "FAIR" INDICATES FEW OR NO CLOUDS BELOW 12,000 FEET WITH NO
       SIGNIFICANT WEATHER AND/OR OBSTRUCTIONS TO VISIBILITY.

  * THESE STATIONS DO NOT REPORT WEATHER SUCH AS RAIN...SNOW OR FOG.

NEZ001>004-019>022-054>056-031400-
NEBRASKA PANHANDLE

CITY           SKY/WX    TMP DP  RH WIND       PRES   REMARKS
SCOTTSBLUFF    FAIR      41  36  82 W7        30.14R
ALLIANCE         N/A     34  33  96 W6        30.11R WCI  29
CHADRON        FAIR      38  35  89 SW6       30.12R WCI  33
SIDNEY         FAIR      41  35  79 NW9       30.13R
$$

NEZ057>060-069>072-079>082-031400-
SOUTHWEST NEBRASKA

CITY           SKY/WX    TMP DP  RH WIND       PRES   REMARKS
NORTH PLATTE   FOG       41  40  96 NW5       30.09R VSB 1/4
IMPERIAL       FAIR      41  39  93 N8        30.09R
LEXINGTON      FAIR      43  41  92 NW3       30.07R
MCCOOK         FAIR      44  42  93 N5        30.06R
$$

NEZ005>010-023>029-035>040-094-031400-
NORTH CENTRAL NEBRASKA

CITY           SKY/WX    TMP DP  RH WIND       PRES   REMARKS
VALENTINE      FAIR      38  36  92 W5        30.09R WCI  34
AINSWORTH      FAIR      41  40  99 W6        30.09R
BROKEN BOW     FAIR      44  41  89 N6        30.06R
ORD            FAIR      41  39  93 NW8       30.07R
$$

NEZ041-046>049-061>064-073>077-083>087-031400-
SOUTH CENTRAL NEBRASKA

CITY           SKY/WX    TMP DP  RH WIND       PRES   REMARKS
GRAND ISLAND   FAIR      45  39  79 N3        30.07R
AURORA         FAIR      46  42  83 CALM      30.07R
HASTINGS       FAIR      46  39  76 CALM      30.06R
KEARNEY *      FAIR      46  41  81 CALM      30.06S
YORK           FAIR      45  43  93 CALM      30.06S
$$

NEZ011>018-030>034-042>045-031400-
NORTHEAST NEBRASKA

CITY           SKY/WX    TMP DP  RH WIND       PRES   REMARKS
NORFOLK        FAIR      47  41  80 CALM      30.06R
ALBION         FAIR      44  40  88 CALM      30.07R
BLAIR          FAIR      50  42  73 W3        30.06R
COLUMBUS *     FAIR      45  36  70 CALM      30.08R
FREMONT        FAIR      47  45  91 CALM      30.07R
TEKAMAH        FAIR      47  43  86 CALM      30.06R
$$

NEZ050>053-065>068-078-088>093-031400-
SOUTHEAST NEBRASKA

CITY           SKY/WX    TMP DP  RH WIND       PRES   REMARKS
LINCOLN        FAIR      45  42  89 SE3       30.07F
OMAHA EPPLEY   FAIR      50  45  83 CALM      30.07R
BEATRICE       FAIR      46  44  93 CALM      30.07S
FALLS CITY     FAIR      49  45  86 W5        30.07R
$$

NEZ044-045-051>053-067-031400-
OMAHA AREA

CITY           SKY/WX    TMP DP  RH WIND       PRES   REMARKS
OMAHA EPPLEY   FAIR      50  45  83 CALM      30.07R
BLAIR          FAIR      50  42  73 W3        30.06R
FREMONT        FAIR      47  45  91 CALM      30.07R
$$



USA.gov is the U.S. government's official web portal to all federal, state and local government web resources and services.